Regional Weather Roundup
Issued by NWS

Home | Current Version | Previous Version | Text Only | Print | Product List | Glossary Off
Versions: 1 2 3 4 5 6 7 8 9 10 11 12 13 14 15 16 17 18 19 20 21 22 23 24 25 26 27 28 29 30 31 32 33 34 35 36 37 38 39 40 41 42 43 44 45 46 47 48 49 50

000
ASUS43 KLSX 250159
RWRMO

WEATHER SUMMARY FOR MISSOURI
NATIONAL WEATHER SERVICE SPRINGFIELD MO
800 PM CST WED DEC 24 2014

NOTE: "FAIR" INDICATES FEW OR NO CLOUDS BELOW 12,000 FEET WITH NO
       SIGNIFICANT WEATHER AND/OR OBSTRUCTIONS TO VISIBILITY.
       CURRENT SKY AND/OR WEATHER CONDITIONS ARE NOT AVAILABLE FOR
       CHILLICOTHE AND FARMINGTON.

MOZ001>031-035>038-043-044-053-054-250300-
...NORTHERN AND WESTERN MISSOURI...

CITY           SKY/WX    TMP DP  RH WIND       PRES   REMARKS
KANSAS CTY INT CLOUDY    33  29  85 W13       29.84R WCI  24
KANSAS C DTWN  CLOUDY    36  29  75 W8        29.85S WCI  30
LEE`S SUMMIT   CLOUDY    35  28  75 SW14      29.85S WCI  26
ST JOSEPH      CLOUDY    33  29  85 SW13      29.83F WCI  24
CHILLICOTHE      N/A     35  29  78 W6        29.82S
KIRKSVILLE     CLOUDY    34  31  88 W15G22    29.79R WCI  24

$$
MOZ066>068-077>081-088>096-101>105-250300-
...SOUTHWEST MISSOURI...

CITY           SKY/WX    TMP DP  RH WIND       PRES   REMARKS
SPRINGFIELD    CLOUDY    36  30  79 W12       29.90R WCI  28
JOPLIN         CLEAR     33  28  81 SW5       29.93S WCI  29

$$
MOZ032>034-039>042-045>050-055>058-069>072-250300-
...CENTRAL MISSOURI...

CITY           SKY/WX    TMP DP  RH WIND       PRES   REMARKS
COLUMBIA       CLOUDY    37  33  85 W10       29.82R WCI  30
JEFFERSON CITY CLOUDY    38  32  79 W9        29.85R
ROLLA          CLOUDY    35  32  88 W10       29.83R WCI  27
SEDALIA        CLOUDY    37  31  78 W13       29.86R WCI  29
OSAGE BEACH    CLOUDY    37  30  75 W7        29.86R

$$
MOZ051-052-059>065-250300-
...EAST CENTRAL MISSOURI...

CITY           SKY/WX    TMP DP  RH WIND       PRES   REMARKS
ST LOUIS INTL  CLOUDY    39  33  79 W10       29.81R
SPIRIT OF STL  LGT RAIN  37  34  89 W5        29.81R
ST CHARLES     CLOUDY    38  32  79 W14       29.80R WCI  30

$$
MOZ072>076-082>087-097>100-106>115-250300-
...SOUTH CENTRAL AND SOUTHEAST MISSOURI...

CITY           SKY/WX    TMP DP  RH WIND       PRES   REMARKS
CAPE GIRARDEAU CLOUDY    40  37  89 W7        29.87R
FARMINGTON     CLOUDY    37  32  81 W5        29.85R
POPLAR BLUFF   CLOUDY    41  32  70 W8        29.88R
WEST PLAINS    CLOUDY    37  30  75 W8        29.88R

$$


USA.gov is the U.S. government's official web portal to all federal, state and local government web resources and services.